[[{"header":{"parameterUnit":"m.s-1","parameterCategory":2,"la1":30.2991,"la2":30.254,"lo1":-89.0895,"lo2":-89.0444,"dy":0.0017,"dx":0.0017,"nx":28,"ny":28,"refTime":"2024-10-06T09:00:00:Z","depth":"0","parameterNumber":2,"parameterNumberName":"U-component_of_CURRENTS"},"data":[0,0,0,0,0,0,0,0,0,0,0,0,0,0,0,0,0,0,0,0,0,0,0,0,0,0,0,0,0,0,0,0,0,0,0,0,0,0,0,0,0,0,0,0,0,0,0,0,0,0,0,0,0,0,0,0,0,0,-0.2117,-0.2117,0,-0.2108,-0.2108,-0.2108,-0.207,-0.2069,-0.2069,-0.2068,-0.2007,-0.2006,-0.2005,0,0,0,0,0,0,0,0,0,0,0,0,0,-0.2122,-0.2122,-0.2117,-0.2117,-0.2117,-0.2108,-0.2108,-0.2108,-0.207,-0.2069,-0.2069,-0.2068,-0.2007,-0.2006,-0.2005,0,0,0,0,0,0,0,0,0,0,0,0,0,-0.2115,-0.2122,-0.2117,-0.2099,-0.2097,-0.2108,-0.2108,-0.2107,-0.207,-0.2069,-0.2068,-0.2067,-0.2008,-0.2006,-0.2005,-0.2017,0,0,-0.2,-0.2,0,0,0,0,0,0,0,0,-0.2116,-0.2115,-0.2101,-0.21,-0.2098,-0.2091,-0.2088,-0.2075,-0.2071,-0.2078,-0.2068,-0.2067,-0.2032,-0.2029,-0.2027,-0.2014,-0.2011,-0.2,-0.1999,-0.1999,-0.1998,0,0,0,0,0,0,0,-0.2116,-0.2115,-0.2111,-0.2101,-0.21,-0.2098,-0.2096,-0.2085,-0.2059,-0.2078,-0.2075,-0.2078,-0.2031,-0.2029,-0.2026,-0.201,-0.2,-0.1999,-0.1998,-0.1998,-0.2016,-0.2017,0,0,0,0,0,0,-0.2121,-0.2116,-0.2112,-0.2111,-0.2107,-0.2099,-0.2096,-0.2093,-0.206,-0.2055,-0.2079,-0.2076,-0.2032,-0.2027,-0.2023,-0.2072,-0.1999,-0.1997,-0.1997,-0.2015,-0.2016,-0.2018,0,0,0,0,0,0,-0.2121,-0.2121,-0.2112,-0.2115,-0.2114,-0.21,-0.2096,-0.2093,-0.2087,-0.2062,-0.2055,-0.2076,-0.2031,-0.2025,-0.202,-0.2068,-0.1997,-0.1995,-0.2013,-0.2015,-0.2017,-0.2146,0,0,0,0,0,0,-0.2121,-0.2121,-0.2116,-0.2115,-0.2114,-0.2124,-0.2098,-0.2094,-0.2091,-0.2087,-0.2057,-0.2051,-0.203,-0.2023,-0.2019,-0.2064,-0.1994,-0.2011,-0.2014,-0.2017,-0.214,-0.2152,-0.2162,0,0,0,0,0,-0.2122,-0.2115,-0.2115,-0.2115,-0.2109,-0.2125,-0.2124,-0.211,-0.2092,-0.2098,-0.2078,-0.2051,-0.2036,-0.2023,-0.2018,-0.2064,-0.201,-0.2013,-0.2016,-0.2135,-0.215,-0.2162,0,0,0,0,0,0,-0.2104,-0.2111,-0.2111,-0.2104,-0.2119,-0.2119,-0.2115,-0.2113,-0.2103,-0.2091,-0.2065,-0.2058,-0.2073,-0.2045,-0.203,-0.2075,-0.2021,-0.2023,-0.2112,-0.2126,-0.2137,-0.2148,-0.1993,0,0,0,0,0,-0.2103,-0.2102,-0.2117,-0.2111,-0.2118,-0.212,-0.2121,-0.2119,-0.2113,-0.2107,-0.2094,-0.2078,-0.2085,-0.2084,-0.2073,-0.2096,-0.2061,-0.2121,-0.2133,-0.2143,-0.2147,-0.2131,-0.2142,-0.2028,-0.2028,-0.2028,0,0,-0.2091,-0.2097,-0.2093,-0.2108,-0.2111,-0.215,-0.2117,-0.2123,-0.2164,-0.2102,-0.2135,-0.2112,-0.2096,-0.2127,-0.2132,-0.2109,-0.216,-0.2147,-0.2156,-0.2154,-0.2136,-0.2147,-0.2156,-0.203,-0.203,-0.2029,0,0,-0.2083,-0.2078,-0.2084,-0.2112,-0.2131,-0.2151,-0.2159,-0.2171,-0.2182,-0.2211,-0.2186,-0.2193,-0.2189,-0.2204,-0.2209,-0.2273,-0.2216,-0.2264,-0.2339,-0.2325,-0.2334,-0.2342,-0.2327,-0.2332,-0.2276,-0.2276,-0.2277,0,-0.2071,-0.209,-0.2089,-0.2123,-0.2158,-0.2162,-0.2207,-0.2231,-0.2244,-0.2263,-0.2233,-0.225,-0.2238,-0.2294,-0.2322,-0.2304,-0.2271,-0.2294,-0.2341,-0.2347,-0.2353,-0.2336,-0.234,-0.2283,-0.2282,-0.2281,-0.2281,0,-0.2084,-0.2114,-0.2122,-0.218,-0.2219,-0.2251,-0.2305,-0.2336,-0.2349,-0.2368,-0.2404,-0.2386,-0.2391,-0.2405,-0.2388,-0.2436,-0.2392,-0.2354,-0.231,-0.2372,-0.235,-0.2352,-0.2292,-0.229,-0.2288,-0.2286,0,0,-0.2027,-0.2116,-0.2121,-0.2171,-0.2258,-0.2288,-0.2378,-0.2453,-0.2484,-0.251,-0.2545,-0.2587,-0.2548,-0.2549,-0.2527,-0.2531,-0.2559,-0.2465,-0.2461,-0.2457,-0.2518,-0.249,-0.2488,-0.2517,-0.2518,-0.2519,-0.2492,0,-0.2043,-0.2119,-0.2171,-0.2269,-0.2323,-0.2391,-0.2467,-0.2535,-0.2567,-0.2596,-0.2613,-0.2618,-0.2614,-0.2593,-0.2611,-0.2551,-0.2567,-0.2569,-0.245,-0.2447,-0.2421,-0.2491,-0.2417,-0.2386,-0.2493,-0.2493,-0.2493,0,-0.2043,-0.2105,-0.2198,-0.2324,-0.235,-0.2411,-0.2522,-0.2589,-0.2653,-0.2665,-0.2695,-0.2673,-0.2708,-0.2661,-0.2651,-0.2643,-0.2601,-0.2563,-0.256,-0.2487,-0.2423,-0.2336,-0.2385,-0.2378,-0.2496,-0.2496,-0.2495,0,-0.2003,-0.2124,-0.2201,-0.2247,-0.2386,-0.2438,-0.2507,-0.2594,-0.2634,-0.2685,-0.2682,-0.2721,-0.2698,-0.2681,-0.2639,-0.2627,-0.2595,-0.2561,-0.2511,-0.2507,-0.2399,-0.2385,-0.243,-0.2556,-0.2556,-0.2557,-0.2557,0,-0.2003,-0.2063,-0.2179,-0.2224,-0.23,-0.2408,-0.247,-0.254,-0.2604,-0.263,-0.2687,-0.2691,-0.2692,-0.2679,-0.2648,-0.2596,-0.2608,-0.2539,-0.2506,-0.2443,-0.2434,-0.2383,-0.2385,-0.2555,-0.2556,-0.2556,-0.2556,0,-0.1943,-0.2024,-0.2111,-0.2246,-0.228,-0.2326,-0.2433,-0.246,-0.2541,-0.257,-0.258,-0.2649,-0.2649,-0.2657,-0.2613,-0.2587,-0.2504,-0.2521,-0.2455,-0.2416,-0.2362,-0.2373,-0.2329,-0.2262,-0.2461,-0.246,-0.2459,0,-0.1921,-0.1959,-0.2087,-0.2112,-0.2167,-0.2244,-0.228,-0.24,-0.2432,-0.2538,-0.2535,-0.2574,-0.2593,-0.2565,-0.2536,-0.2502,-0.2471,-0.2392,-0.2373,-0.2372,-0.236,-0.234,-0.2285,-0.228,-0.2278,-0.2276,-0.2275,0,-0.1874,-0.1909,-0.1969,-0.2021,-0.2064,-0.2119,-0.2189,-0.2211,-0.234,-0.2381,-0.2437,-0.2468,-0.2499,-0.2464,-0.2446,-0.2399,-0.234,-0.2356,-0.2363,-0.2244,-0.2214,-0.2128,-0.2292,-0.226,-0.2261,-0.2262,-0.2263,-0.2264,-0.181,-0.1821,-0.1878,-0.1917,-0.1954,-0.198,-0.1982,-0.2068,-0.2116,-0.2186,-0.2294,-0.2351,-0.2381,-0.2367,-0.2325,-0.2244,-0.2247,-0.2171,-0.2191,-0.2177,-0.2104,-0.2251,-0.2179,-0.2179,-0.218,-0.2181,-0.2182,0,-0.1727,-0.1742,-0.177,-0.1807,-0.1791,-0.1856,-0.1899,-0.1884,-0.1903,-0.2037,-0.21,-0.2234,-0.2208,-0.2238,-0.2194,-0.2108,-0.2027,-0.2048,-0.2006,-0.1959,-0.209,-0.2076,-0.1967,-0.1967,-0.1968,-0.1968,-0.1968,-0.1968,-0.1683,-0.1671,-0.1687,-0.1635,-0.1645,-0.1591,-0.1586,-0.1594,-0.1661,-0.1765,-0.1914,-0.2079,-0.214,-0.2266,-0.2166,-0.2058,-0.1976,-0.1915,-0.1916,-0.2034,-0.2047,-0.2059,-0.2048,-0.1936,-0.1936,-0.1712,-0.171,-0.1709]},{"header":{"parameterUnit":"m.s-1","parameterCategory":2,"la1":30.2991,"la2":30.254,"lo1":-89.0895,"lo2":-89.0444,"dy":0.0017,"dx":0.0017,"nx":28,"ny":28,"refTime":"2024-10-06T09:00:00:Z","depth":"0","parameterNumber":3,"parameterNumberName":"V-component_of_CURRENTS"},"data":[0,0,0,0,0,0,0,0,0,0,0,0,0,0,0,0,0,0,0,0,0,0,0,0,0,0,0,0,0,0,0,0,0,0,0,0,0,0,0,0,0,0,0,0,0,0,0,0,0,0,0,0,0,0,0,0,0,0,-0.0227,-0.0227,0,-0.018,-0.018,-0.0179,-0.0154,-0.0154,-0.0154,-0.0154,-0.009,-0.0088,-0.0087,0,0,0,0,0,0,0,0,0,0,0,0,0,-0.0286,-0.0285,-0.0227,-0.0227,-0.0226,-0.018,-0.018,-0.0179,-0.0154,-0.0154,-0.0154,-0.0154,-0.009,-0.0089,-0.0087,0,0,0,0,0,0,0,0,0,0,0,0,0,-0.0252,-0.0285,-0.0227,-0.0208,-0.0206,-0.018,-0.018,-0.0179,-0.0154,-0.0154,-0.0154,-0.0154,-0.0091,-0.0089,-0.0086,-0.0072,0,0,-0.0079,-0.0078,0,0,0,0,0,0,0,0,-0.0254,-0.025,-0.0212,-0.021,-0.0207,-0.0173,-0.0177,-0.0142,-0.0154,-0.0174,-0.0154,-0.0154,-0.0116,-0.0112,-0.0103,-0.0069,-0.0067,-0.0078,-0.0077,-0.0076,-0.0075,0,0,0,0,0,0,0,-0.0257,-0.0252,-0.0209,-0.0211,-0.0208,-0.0199,-0.0194,-0.017,-0.0146,-0.0172,-0.017,-0.0165,-0.0115,-0.0106,-0.0101,-0.0066,-0.0078,-0.0076,-0.0075,-0.0074,-0.0009,-0.0009,0,0,0,0,0,0,-0.0263,-0.0254,-0.021,-0.0207,-0.0231,-0.0198,-0.0192,-0.0184,-0.0146,-0.0141,-0.0165,-0.0164,-0.011,-0.0104,-0.0099,-0.0087,-0.0076,-0.0074,-0.0072,-0.0009,-0.0009,-0.0009,0,0,0,0,0,0,-0.0264,-0.0259,-0.0212,-0.023,-0.0223,-0.0197,-0.0188,-0.0183,-0.0174,-0.0141,-0.0135,-0.0161,-0.011,-0.0103,-0.0078,-0.0084,-0.0072,-0.007,-0.0009,-0.0009,-0.0009,-0.0059,0,0,0,0,0,0,-0.0266,-0.026,-0.0258,-0.023,-0.0222,-0.0203,-0.0188,-0.0182,-0.0171,-0.0169,-0.0135,-0.0129,-0.0109,-0.0082,-0.0075,-0.0081,-0.0068,-0.001,-0.0009,-0.0009,-0.0057,-0.006,-0.0063,0,0,0,0,0,-0.0268,-0.0266,-0.0258,-0.0253,-0.022,-0.0203,-0.0198,-0.0179,-0.0171,-0.017,-0.0144,-0.013,-0.0074,-0.008,-0.0072,-0.0077,-0.001,-0.0009,-0.0009,-0.0056,-0.006,-0.0063,0,0,0,0,0,0,-0.029,-0.0263,-0.0253,-0.0243,-0.0227,-0.0199,-0.0195,-0.0181,-0.016,-0.0158,-0.0126,-0.0119,-0.01,-0.0077,-0.0084,-0.0055,-0.004,-0.0038,-0.0079,-0.0082,-0.0084,-0.0099,-0.0066,0,0,0,0,0,-0.0294,-0.0287,-0.026,-0.0253,-0.0246,-0.0221,-0.0212,-0.02,-0.0177,-0.0168,-0.0143,-0.0115,-0.0091,-0.0079,-0.0054,-0.0038,-0.0004,-0.0035,-0.0038,-0.004,-0.0046,0.0011,0.0012,-0.0007,-0.0007,-0.0007,0,0,-0.0301,-0.0285,-0.0281,-0.0258,-0.0244,-0.0249,-0.0216,-0.0206,-0.0209,-0.0164,-0.0158,-0.0124,-0.0088,-0.0072,-0.0061,-0.0055,-0.0016,-0.0039,-0.0042,-0.0046,0.0011,0.0013,0.0015,-0.0007,-0.0007,-0.0007,0,0,-0.0321,-0.0297,-0.0304,-0.0297,-0.028,-0.0265,-0.0264,-0.0238,-0.0224,-0.021,-0.0178,-0.0145,-0.0114,-0.0086,-0.0069,-0.0068,-0.0031,-0.0062,-0.0089,-0.0035,-0.0033,-0.0031,0.0012,0.0018,-0.0065,-0.0065,-0.0065,0,-0.0334,-0.0341,-0.0305,-0.0316,-0.0321,-0.0278,-0.0299,-0.0276,-0.0246,-0.023,-0.0217,-0.015,-0.0121,-0.0091,-0.0095,-0.0075,-0.0042,-0.0084,-0.0039,-0.0036,-0.0033,0.0011,0.0018,-0.0067,-0.0067,-0.0067,-0.0067,0,-0.0365,-0.0377,-0.0381,-0.0385,-0.038,-0.0389,-0.036,-0.0342,-0.0318,-0.029,-0.0248,-0.0196,-0.0155,-0.014,-0.0121,-0.0087,-0.007,-0.0049,-0.0035,-0.0034,0.0012,0.0021,-0.0071,-0.007,-0.0069,-0.0069,0,0,-0.0384,-0.0403,-0.0406,-0.0434,-0.0422,-0.0426,-0.0418,-0.0398,-0.0385,-0.0338,-0.0314,-0.0262,-0.0215,-0.0192,-0.0149,-0.0106,-0.0059,-0.0078,-0.0074,-0.0043,0.0055,0.0097,0.0111,-0.003,-0.0029,-0.0028,0.0077,0,-0.0428,-0.0483,-0.0469,-0.0522,-0.0554,-0.0515,-0.0511,-0.048,-0.0436,-0.0395,-0.0316,-0.0278,-0.0239,-0.0215,-0.0164,-0.0081,-0.0037,-0.009,0.0056,0.006,0.0092,0.0123,0.0153,0.0252,0.0086,0.0088,0.0089,0,-0.0466,-0.0507,-0.0573,-0.0607,-0.0612,-0.0626,-0.0609,-0.0597,-0.0515,-0.0474,-0.0404,-0.0335,-0.0258,-0.0226,-0.0083,-0.0118,-0.0043,0.0021,0.0028,0.009,0.012,0.0227,0.0275,0.0423,0.0103,0.0102,0.0101,0,-0.0522,-0.0574,-0.0637,-0.0652,-0.0676,-0.0684,-0.068,-0.0621,-0.0603,-0.0515,-0.0482,-0.0372,-0.0311,-0.0198,-0.0062,-0.0071,0.0097,0.0109,0.0218,0.0222,0.0288,0.0296,0.0491,0.0204,0.0204,0.0204,0.0204,0,-0.0582,-0.063,-0.0669,-0.0711,-0.0765,-0.0747,-0.0764,-0.0729,-0.0666,-0.0639,-0.0527,-0.0475,-0.0302,-0.0181,-0.0065,0.0111,0.0103,0.0222,0.0258,0.0272,0.0276,0.044,0.0489,0.0208,0.0207,0.0206,0.0205,0,-0.0638,-0.066,-0.0742,-0.079,-0.08,-0.0838,-0.0836,-0.0833,-0.0762,-0.0718,-0.0692,-0.0541,-0.0373,-0.0197,0.0001,0.011,0.0362,0.0326,0.0326,0.0361,0.0598,0.0641,0.0856,0.0924,0.0471,0.0473,0.0474,0,-0.0671,-0.0724,-0.0812,-0.0855,-0.0881,-0.0921,-0.0936,-0.0889,-0.0876,-0.0759,-0.074,-0.0566,-0.0432,-0.0117,0.0117,0.0354,0.0447,0.0505,0.0498,0.063,0.0705,0.0734,0.0776,0.0567,0.0569,0.0571,0.0572,0,-0.075,-0.0781,-0.085,-0.0945,-0.0988,-0.1031,-0.1045,-0.1048,-0.0972,-0.0915,-0.0807,-0.0687,-0.0353,-0.0055,0.0266,0.0406,0.0618,0.0548,0.0698,0.0811,0.0844,0.0919,0.0467,0.0588,0.0586,0.0585,0.0584,0.0584,-0.0797,-0.0866,-0.0952,-0.1033,-0.1083,-0.1125,-0.1151,-0.1137,-0.111,-0.1008,-0.0879,-0.0677,-0.0215,0.0256,0.0428,0.081,0.0765,0.0915,0.0959,0.0979,0.1044,0.0618,0.077,0.0769,0.0769,0.0768,0.0768,0,-0.0864,-0.0935,-0.1027,-0.1122,-0.1181,-0.1183,-0.1207,-0.1207,-0.1177,-0.1056,-0.0926,-0.0438,0.0024,0.045,0.1001,0.1207,0.124,0.1306,0.1363,0.1388,0.1038,0.1042,0.1243,0.1243,0.1242,0.1242,0.1242,0.1242,-0.09,-0.1009,-0.1063,-0.1181,-0.1231,-0.1279,-0.1289,-0.1272,-0.1197,-0.0995,-0.0741,-0.0539,0.0114,0.1043,0.1562,0.1605,0.1749,0.1746,0.1818,0.1588,0.1554,0.1522,0.1541,0.1843,0.1844,0.2154,0.2157,0.216]}],[{"header":{"parameterUnit":"m.s-1","parameterCategory":2,"la1":30.2991,"la2":30.254,"lo1":-89.0895,"lo2":-89.0444,"dy":0.0017,"dx":0.0017,"nx":28,"ny":28,"refTime":"2024-10-06T09:00:00:Z","depth":"2","parameterNumber":2,"parameterNumberName":"U-component_of_CURRENTS"},"data":[0,0,0,0,0,0,0,0,0,0,0,0,0,0,0,0,0,0,0,0,0,0,0,0,0,0,0,0,0,0,0,0,0,0,0,0,0,0,0,0,0,0,0,0,0,0,0,0,0,0,0,0,0,0,0,0,0,0,-0.1961,-0.1961,0,-0.1953,-0.1952,-0.1952,-0.1921,-0.192,-0.192,-0.1919,-0.1867,-0.1866,-0.1865,0,0,0,0,0,0,0,0,0,0,0,0,0,-0.196,-0.196,-0.1961,-0.1961,-0.1961,-0.1953,-0.1952,-0.1952,-0.1921,-0.192,-0.192,-0.1919,-0.1867,-0.1866,-0.1865,0,0,0,0,0,0,0,0,0,0,0,0,0,-0.1955,-0.196,-0.1961,-0.1946,-0.1945,-0.1953,-0.1952,-0.1952,-0.1921,-0.192,-0.192,-0.1919,-0.1867,-0.1866,-0.1865,-0.1872,0,0,-0.1861,-0.186,0,0,0,0,0,0,0,0,-0.1955,-0.1955,-0.1948,-0.1947,-0.1946,-0.1939,-0.1933,-0.1924,-0.1921,-0.1928,-0.1919,-0.1919,-0.1889,-0.1886,-0.1883,-0.187,-0.1867,-0.1861,-0.186,-0.1859,-0.1859,0,0,0,0,0,0,0,-0.1956,-0.1955,-0.1955,-0.1948,-0.1947,-0.1944,-0.1942,-0.1931,-0.191,-0.1927,-0.1926,-0.1928,-0.1887,-0.1885,-0.1882,-0.1867,-0.1861,-0.1859,-0.1858,-0.1858,-0.1873,-0.1874,0,0,0,0,0,0,-0.1961,-0.1956,-0.1956,-0.1955,-0.1951,-0.1945,-0.1942,-0.194,-0.1911,-0.1907,-0.1929,-0.1927,-0.1888,-0.1884,-0.188,-0.1925,-0.1859,-0.1858,-0.1857,-0.1871,-0.1873,-0.1874,0,0,0,0,0,0,-0.1961,-0.1961,-0.1956,-0.1957,-0.1956,-0.1945,-0.1943,-0.194,-0.1937,-0.1914,-0.1908,-0.1928,-0.1887,-0.1882,-0.1877,-0.1921,-0.1857,-0.1856,-0.187,-0.1872,-0.1873,-0.1989,0,0,0,0,0,0,-0.1961,-0.1961,-0.1958,-0.1957,-0.1957,-0.1966,-0.1944,-0.1941,-0.1941,-0.1938,-0.1911,-0.1906,-0.1886,-0.188,-0.1876,-0.1918,-0.1855,-0.1868,-0.1871,-0.1873,-0.1984,-0.1995,-0.2004,0,0,0,0,0,-0.1961,-0.1957,-0.1958,-0.1958,-0.1954,-0.1967,-0.1967,-0.1955,-0.1942,-0.1947,-0.193,-0.1906,-0.1891,-0.1879,-0.1875,-0.1917,-0.1867,-0.187,-0.1873,-0.198,-0.1993,-0.2004,0,0,0,0,0,0,-0.1946,-0.1954,-0.1955,-0.1951,-0.1964,-0.1963,-0.196,-0.1959,-0.195,-0.1942,-0.1918,-0.1912,-0.1925,-0.1899,-0.1887,-0.1926,-0.1877,-0.1879,-0.196,-0.1972,-0.1982,-0.1994,-0.1854,0,0,0,0,0,-0.1946,-0.1947,-0.1961,-0.1957,-0.1964,-0.1965,-0.1967,-0.1965,-0.196,-0.1955,-0.1943,-0.193,-0.1934,-0.1934,-0.1922,-0.1943,-0.1915,-0.1967,-0.1977,-0.1986,-0.1991,-0.1981,-0.1991,-0.1883,-0.1883,-0.1883,0,0,-0.1937,-0.1943,-0.1941,-0.1955,-0.1958,-0.1989,-0.1963,-0.197,-0.2005,-0.1951,-0.1979,-0.1958,-0.1943,-0.197,-0.1974,-0.1955,-0.2004,-0.1989,-0.1998,-0.1998,-0.1984,-0.1995,-0.2004,-0.1885,-0.1884,-0.1884,0,0,-0.193,-0.1928,-0.1935,-0.1957,-0.1975,-0.1992,-0.1999,-0.2009,-0.2021,-0.2046,-0.2023,-0.2032,-0.2026,-0.2039,-0.2043,-0.21,-0.2052,-0.2092,-0.2163,-0.2154,-0.2162,-0.217,-0.2161,-0.2166,-0.2105,-0.2105,-0.2105,0,-0.192,-0.1937,-0.1939,-0.1966,-0.1995,-0.2001,-0.2037,-0.2059,-0.207,-0.209,-0.2065,-0.2079,-0.2069,-0.212,-0.2145,-0.2128,-0.2102,-0.2123,-0.2168,-0.2175,-0.218,-0.2169,-0.2174,-0.2111,-0.2111,-0.211,-0.2109,0,-0.193,-0.1956,-0.1963,-0.2011,-0.2043,-0.2069,-0.2116,-0.2145,-0.2159,-0.2178,-0.2213,-0.2199,-0.2205,-0.2217,-0.2203,-0.2251,-0.2213,-0.2178,-0.2141,-0.2198,-0.2182,-0.2185,-0.212,-0.2118,-0.2116,-0.2114,0,0,-0.1882,-0.1957,-0.1962,-0.2003,-0.2073,-0.2098,-0.2175,-0.2241,-0.2273,-0.2297,-0.2335,-0.2371,-0.2345,-0.2346,-0.2329,-0.2338,-0.2371,-0.2282,-0.2279,-0.2281,-0.2344,-0.2311,-0.231,-0.2335,-0.2335,-0.2336,-0.2322,0,-0.1894,-0.1958,-0.1999,-0.2078,-0.2123,-0.218,-0.2246,-0.2308,-0.2341,-0.2374,-0.2395,-0.2407,-0.2402,-0.239,-0.241,-0.2363,-0.2381,-0.2378,-0.2281,-0.2278,-0.2248,-0.2314,-0.213,-0.2101,-0.2324,-0.2325,-0.2325,0,-0.1891,-0.1945,-0.2021,-0.2126,-0.2148,-0.2198,-0.2297,-0.2355,-0.2422,-0.244,-0.2473,-0.246,-0.2499,-0.2458,-0.2458,-0.2448,-0.2415,-0.2385,-0.2382,-0.2311,-0.2251,-0.2076,-0.2097,-0.2329,-0.2329,-0.2328,-0.2328,0,-0.1859,-0.1958,-0.2023,-0.2061,-0.2177,-0.2223,-0.2283,-0.2366,-0.2406,-0.2464,-0.2471,-0.2512,-0.2502,-0.2489,-0.2457,-0.2444,-0.2427,-0.2394,-0.2345,-0.2341,-0.2147,-0.2125,-0.2396,-0.2396,-0.2396,-0.2396,-0.2396,0,-0.1856,-0.1906,-0.2008,-0.2046,-0.2114,-0.2204,-0.2264,-0.2327,-0.2394,-0.2426,-0.2483,-0.2493,-0.2501,-0.2495,-0.2468,-0.2424,-0.244,-0.2372,-0.2342,-0.2184,-0.2167,-0.2324,-0.2315,-0.2395,-0.2395,-0.2395,-0.2395,0,-0.1805,-0.1876,-0.195,-0.2068,-0.2098,-0.2141,-0.2237,-0.2268,-0.2349,-0.2385,-0.2399,-0.2469,-0.2474,-0.2483,-0.2451,-0.2422,-0.2386,-0.2364,-0.2188,-0.2139,-0.2305,-0.2303,-0.231,-0.2309,-0.2308,-0.2307,-0.2306,0,-0.1785,-0.1819,-0.1932,-0.1956,-0.2004,-0.2075,-0.211,-0.2221,-0.2254,-0.236,-0.2361,-0.2407,-0.2422,-0.2402,-0.2359,-0.2324,-0.2365,-0.2124,-0.2086,-0.2329,-0.2299,-0.2299,-0.2298,-0.187,-0.1866,-0.1863,-0.186,0,-0.1741,-0.1776,-0.1827,-0.1877,-0.1917,-0.1967,-0.2032,-0.2056,-0.2176,-0.2219,-0.2273,-0.2301,-0.2319,-0.2218,-0.2195,-0.2138,-0.2122,-0.2056,-0.2333,-0.1937,-0.1918,-0.1888,-0.1901,-0.183,-0.1833,-0.1835,-0.1837,-0.1838,-0.1683,-0.1693,-0.1745,-0.1781,-0.1818,-0.1841,-0.1841,-0.1917,-0.1962,-0.2011,-0.2119,-0.2114,-0.2109,-0.2007,-0.1917,-0.1844,-0.1986,-0.1869,-0.1878,-0.1891,-0.1859,-0.1841,-0.1732,-0.1734,-0.1736,-0.1738,-0.174,0,-0.1604,-0.1619,-0.1644,-0.1678,-0.1663,-0.1726,-0.1763,-0.1738,-0.1747,-0.1831,-0.1873,-0.1728,-0.1691,-0.1697,-0.1557,-0.1533,-0.1488,-0.1446,-0.138,-0.1412,-0.144,-0.1384,-0.1131,-0.1129,-0.1127,-0.1126,0,0,-0.1562,-0.1548,-0.1562,-0.1512,-0.1523,-0.1469,-0.1463,-0.1447,-0.1471,-0.145,-0.1466,-0.1624,-0.1667,-0.1409,-0.1339,-0.1219,-0.1295,-0.1152,-0.1641,-0.1595,-0.162,-0.1686,-0.1636,0,0,0,0,0]},{"header":{"parameterUnit":"m.s-1","parameterCategory":2,"la1":30.2991,"la2":30.254,"lo1":-89.0895,"lo2":-89.0444,"dy":0.0017,"dx":0.0017,"nx":28,"ny":28,"refTime":"2024-10-06T09:00:00:Z","depth":"2","parameterNumber":3,"parameterNumberName":"V-component_of_CURRENTS"},"data":[0,0,0,0,0,0,0,0,0,0,0,0,0,0,0,0,0,0,0,0,0,0,0,0,0,0,0,0,0,0,0,0,0,0,0,0,0,0,0,0,0,0,0,0,0,0,0,0,0,0,0,0,0,0,0,0,0,0,-0.0139,-0.0139,0,-0.0094,-0.0094,-0.0093,-0.0071,-0.0071,-0.0071,-0.0071,-0.0012,-0.001,-0.0009,0,0,0,0,0,0,0,0,0,0,0,0,0,-0.0193,-0.0193,-0.0139,-0.0139,-0.0138,-0.0094,-0.0094,-0.0093,-0.0071,-0.0071,-0.0071,-0.0071,-0.0012,-0.0011,-0.0009,0,0,0,0,0,0,0,0,0,0,0,0,0,-0.0161,-0.0192,-0.0139,-0.0122,-0.012,-0.0095,-0.0094,-0.0093,-0.0071,-0.0071,-0.0071,-0.0071,-0.0013,-0.0011,-0.0008,0.0006,0,0,-0.0001,-0.0,0,0,0,0,0,0,0,0,-0.0163,-0.0159,-0.0125,-0.0123,-0.0121,-0.0088,-0.0091,-0.0059,-0.0071,-0.009,-0.0071,-0.0071,-0.0036,-0.0032,-0.0024,0.0009,0.0012,-0.0001,0.0,0.0002,0.0002,0,0,0,0,0,0,0,-0.0166,-0.0161,-0.0122,-0.0124,-0.0122,-0.0112,-0.0107,-0.0085,-0.0063,-0.0088,-0.0086,-0.0081,-0.0035,-0.0026,-0.0022,0.0012,-0.0001,0.0001,0.0003,0.0003,0.0067,0.0068,0,0,0,0,0,0,-0.0171,-0.0163,-0.0123,-0.012,-0.0142,-0.0111,-0.0106,-0.0099,-0.0064,-0.0058,-0.0081,-0.008,-0.003,-0.0025,-0.002,-0.0006,0.0001,0.0004,0.0005,0.0067,0.0067,0.0068,0,0,0,0,0,0,-0.0173,-0.0168,-0.0125,-0.0141,-0.0135,-0.011,-0.0102,-0.0098,-0.009,-0.0059,-0.0053,-0.0078,-0.003,-0.0023,0.0001,-0.0004,0.0005,0.0007,0.0067,0.0067,0.0068,0.0025,0,0,0,0,0,0,-0.0175,-0.0169,-0.0168,-0.0141,-0.0134,-0.0115,-0.0102,-0.0097,-0.0087,-0.0085,-0.0054,-0.0048,-0.0029,-0.0003,0.0003,-0.0,0.0009,0.0066,0.0067,0.0067,0.0026,0.0024,0.0022,0,0,0,0,0,-0.0177,-0.0176,-0.0168,-0.0163,-0.0133,-0.0116,-0.0111,-0.0094,-0.0087,-0.0086,-0.0062,-0.0049,0.0004,-0.0001,0.0006,0.0003,0.0066,0.0067,0.0067,0.0027,0.0024,0.0022,0,0,0,0,0,0,-0.0198,-0.0172,-0.0164,-0.0155,-0.0139,-0.0112,-0.0109,-0.0096,-0.0076,-0.0075,-0.0045,-0.0038,-0.0018,0.0002,-0.0005,0.0025,0.0037,0.0039,0.0004,0.0002,-0.0,-0.0014,0.0011,0,0,0,0,0,-0.0202,-0.0196,-0.017,-0.0165,-0.0158,-0.0134,-0.0126,-0.0115,-0.0092,-0.0084,-0.0061,-0.0034,-0.001,0.0002,0.0026,0.0043,0.0074,0.0047,0.0045,0.0043,0.0037,0.0089,0.0091,0.007,0.007,0.007,0,0,-0.021,-0.0195,-0.0191,-0.0169,-0.0156,-0.0158,-0.0129,-0.012,-0.0121,-0.008,-0.0072,-0.004,-0.0006,0.0012,0.0022,0.0027,0.0065,0.0043,0.0041,0.0037,0.009,0.0092,0.0094,0.007,0.007,0.007,0,0,-0.023,-0.0208,-0.0215,-0.0206,-0.019,-0.0174,-0.0174,-0.0148,-0.0135,-0.012,-0.0089,-0.0058,-0.0027,0.0001,0.0018,0.0022,0.0054,0.0027,0.0003,0.0054,0.0056,0.0058,0.0098,0.0104,0.0024,0.0024,0.0024,0,-0.0242,-0.0249,-0.0215,-0.0224,-0.0227,-0.0186,-0.0204,-0.018,-0.0151,-0.0137,-0.0125,-0.006,-0.0032,-0.0,-0.0002,0.0016,0.0046,0.0006,0.005,0.0053,0.0056,0.0097,0.0104,0.0022,0.0023,0.0023,0.0023,0,-0.0271,-0.0281,-0.0285,-0.0285,-0.0279,-0.0286,-0.0255,-0.0238,-0.0215,-0.0189,-0.0148,-0.0097,-0.0059,-0.0043,-0.0025,0.0009,0.0024,0.0042,0.0053,0.0055,0.0099,0.0107,0.0019,0.002,0.0021,0.0021,0,0,-0.0293,-0.0306,-0.031,-0.0334,-0.0317,-0.0319,-0.0307,-0.0286,-0.0275,-0.0227,-0.0205,-0.0152,-0.0112,-0.0089,-0.0049,-0.0007,0.0039,0.0017,0.002,0.005,0.0144,0.018,0.0192,0.0064,0.0065,0.0066,0.0165,0,-0.0334,-0.0383,-0.0366,-0.0412,-0.044,-0.0399,-0.0392,-0.0361,-0.0319,-0.028,-0.0205,-0.017,-0.0132,-0.0111,-0.0061,0.0016,0.0059,0.001,0.0143,0.0147,0.0173,0.0203,0.0171,0.0259,0.0173,0.0175,0.0176,0,-0.037,-0.0406,-0.0465,-0.0493,-0.0497,-0.0506,-0.0487,-0.0473,-0.0396,-0.0358,-0.0292,-0.0229,-0.0153,-0.0123,0.0014,-0.002,0.0051,0.0113,0.0119,0.0172,0.0198,0.0244,0.0278,0.019,0.0189,0.0188,0.0187,0,-0.0427,-0.0471,-0.0528,-0.054,-0.0556,-0.0563,-0.0557,-0.05,-0.0483,-0.0402,-0.0373,-0.0266,-0.021,-0.0102,0.003,0.0022,0.0182,0.0193,0.0294,0.0297,0.0306,0.0308,0.0285,0.0285,0.0284,0.0284,0.0284,0,-0.0484,-0.0527,-0.0562,-0.06,-0.0651,-0.0629,-0.0646,-0.0611,-0.0552,-0.0527,-0.0419,-0.0371,-0.0202,-0.0087,0.0025,0.0192,0.0185,0.0298,0.0331,0.0291,0.0291,0.0257,0.0253,0.0288,0.0287,0.0286,0.0286,0,-0.054,-0.0559,-0.0635,-0.0677,-0.0686,-0.0723,-0.0719,-0.0717,-0.065,-0.061,-0.0586,-0.044,-0.0279,-0.0107,0.0082,0.0188,0.0338,0.0392,0.0332,0.0357,0.0418,0.041,0.0522,0.0525,0.0527,0.0528,0.0529,0,-0.0573,-0.0623,-0.0706,-0.0747,-0.077,-0.0808,-0.0823,-0.0777,-0.0764,-0.0652,-0.0635,-0.0469,-0.0341,-0.004,0.0178,0.0402,0.039,0.0492,0.0479,0.0424,0.0446,0.0435,0.0425,0.0472,0.0473,0.0474,0.0474,0,-0.065,-0.068,-0.0745,-0.0837,-0.0879,-0.0919,-0.0931,-0.0935,-0.0859,-0.0806,-0.0703,-0.059,-0.0278,-0.0023,0.0279,0.0401,0.0458,0.0513,0.0487,0.0416,0.0385,0.0403,0.0393,0.0479,0.0479,0.0479,0.0478,0.0478,-0.0697,-0.0764,-0.0846,-0.0925,-0.0973,-0.1012,-0.1037,-0.102,-0.0993,-0.0891,-0.0773,-0.0583,-0.0306,0.0122,0.0336,0.0538,0.054,0.0581,0.0575,0.057,0.0546,0.052,0.0634,0.0635,0.0635,0.0635,0.0636,0,-0.0762,-0.0832,-0.0921,-0.1011,-0.1066,-0.107,-0.1091,-0.1083,-0.1051,-0.0935,-0.0811,-0.051,-0.0198,0.0082,0.0413,0.0614,0.0589,0.0632,0.0559,0.0553,0.0548,0.0519,0.0603,0.0603,0.0603,0.0604,0,0,-0.0797,-0.0901,-0.0953,-0.1066,-0.1115,-0.116,-0.1169,-0.1135,-0.1059,-0.0948,-0.0802,-0.0576,-0.0212,0.001,0.0271,0.044,0.0433,0.045,0.0457,0.0333,0.0325,0.0505,0.0453,0,0,0,0,0]}],[{"header":{"parameterUnit":"m.s-1","parameterCategory":2,"la1":30.2991,"la2":30.254,"lo1":-89.0895,"lo2":-89.0444,"dy":0.0017,"dx":0.0017,"nx":28,"ny":28,"refTime":"2024-10-06T09:00:00:Z","depth":"4","parameterNumber":2,"parameterNumberName":"U-component_of_CURRENTS"},"data":[0,0,0,0,0,0,0,0,0,0,0,0,0,0,0,0,0,0,0,0,0,0,0,0,0,0,0,0,0,0,0,0,0,0,0,0,0,0,0,0,0,0,0,0,0,0,0,0,0,0,0,0,0,0,0,0,0,0,-0.1393,-0.1393,0,-0.1424,-0.1424,-0.1424,-0.1445,-0.1445,-0.1445,-0.1446,-0.1463,-0.1463,-0.1463,0,0,0,0,0,0,0,0,0,0,0,0,0,-0.1349,-0.1349,-0.1393,-0.1393,-0.1394,-0.1424,-0.1424,-0.1424,-0.1445,-0.1445,-0.1445,-0.1446,-0.1462,-0.1463,-0.1463,0,0,0,0,0,0,0,0,0,0,0,0,0,-0.1371,-0.1349,-0.1393,-0.1409,-0.1411,-0.1424,-0.1424,-0.1424,-0.1445,-0.1445,-0.1446,-0.1446,-0.1462,-0.1463,-0.1463,-0.1456,0,0,-0.1464,-0.1464,0,0,0,0,0,0,0,0,-0.137,-0.1372,-0.1406,-0.1408,-0.141,-0.1432,-0.1415,-0.1435,-0.1445,-0.143,-0.1446,-0.1446,-0.1452,-0.1453,-0.1456,-0.1457,-0.1457,-0.1464,-0.1464,-0.1464,-0.1464,0,0,0,0,0,0,0,-0.1368,-0.1371,-0.1403,-0.1407,-0.1409,-0.1414,-0.1417,-0.1419,-0.1437,-0.1431,-0.1433,-0.1439,-0.1453,-0.1455,-0.1456,-0.1458,-0.1464,-0.1464,-0.1464,-0.1464,-0.1514,-0.1515,0,0,0,0,0,0,-0.1367,-0.137,-0.1403,-0.1405,-0.1392,-0.1414,-0.1418,-0.1423,-0.1437,-0.144,-0.1439,-0.144,-0.1455,-0.1456,-0.1457,-0.1493,-0.1464,-0.1464,-0.1464,-0.1513,-0.1514,-0.1515,0,0,0,0,0,0,-0.1366,-0.137,-0.1401,-0.1389,-0.1394,-0.1415,-0.142,-0.1424,-0.1449,-0.1443,-0.1446,-0.1464,-0.1455,-0.1457,-0.148,-0.1492,-0.1464,-0.1465,-0.1511,-0.1513,-0.1515,-0.1537,0,0,0,0,0,0,-0.1365,-0.1369,-0.1383,-0.1389,-0.1394,-0.1425,-0.142,-0.1424,-0.1452,-0.1454,-0.1465,-0.1466,-0.1456,-0.1479,-0.148,-0.1492,-0.1465,-0.151,-0.1512,-0.1514,-0.1535,-0.1539,-0.1543,0,0,0,0,0,-0.1363,-0.1373,-0.1383,-0.1388,-0.1409,-0.1426,-0.143,-0.1444,-0.1453,-0.1468,-0.1477,-0.1467,-0.1493,-0.148,-0.1481,-0.1493,-0.1509,-0.1511,-0.1514,-0.1533,-0.1538,-0.1543,0,0,0,0,0,0,-0.1358,-0.1376,-0.1388,-0.1403,-0.1423,-0.1431,-0.1448,-0.1459,-0.1478,-0.1486,-0.1479,-0.1481,-0.1505,-0.1502,-0.1488,-0.1516,-0.15,-0.1503,-0.1514,-0.1519,-0.1523,-0.1538,-0.1465,0,0,0,0,0,-0.1364,-0.138,-0.1398,-0.1413,-0.1426,-0.1443,-0.1456,-0.1468,-0.1481,-0.1492,-0.15,-0.1508,-0.1512,-0.1519,-0.1524,-0.1539,-0.1548,-0.155,-0.1554,-0.1557,-0.1571,-0.1607,-0.1616,-0.1524,-0.1524,-0.1524,0,0,-0.1366,-0.1379,-0.1389,-0.1414,-0.1431,-0.1445,-0.1452,-0.1479,-0.1491,-0.1489,-0.1516,-0.1525,-0.1521,-0.1537,-0.1548,-0.1538,-0.1585,-0.1561,-0.1563,-0.1576,-0.1611,-0.162,-0.1628,-0.1526,-0.1525,-0.1525,0,0,-0.1372,-0.1392,-0.1409,-0.1428,-0.1461,-0.1464,-0.1478,-0.1503,-0.1519,-0.1541,-0.1544,-0.1568,-0.1573,-0.1578,-0.1576,-0.161,-0.1607,-0.1612,-0.1642,-0.1677,-0.1684,-0.1691,-0.1699,-0.1706,-0.1613,-0.1613,-0.1613,0,-0.1376,-0.1399,-0.1417,-0.1439,-0.1457,-0.1474,-0.1495,-0.1505,-0.1536,-0.1564,-0.1554,-0.1599,-0.1589,-0.1618,-0.1623,-0.1618,-0.1634,-0.1618,-0.1682,-0.1689,-0.1696,-0.1702,-0.171,-0.1614,-0.1614,-0.1614,-0.1614,0,-0.1387,-0.1419,-0.1431,-0.1459,-0.1478,-0.1502,-0.1518,-0.1549,-0.1566,-0.1585,-0.1637,-0.1634,-0.1667,-0.1661,-0.1643,-0.1693,-0.1686,-0.1682,-0.1667,-0.1706,-0.171,-0.1718,-0.1616,-0.1616,-0.1616,-0.1615,0,0,-0.1359,-0.1428,-0.1435,-0.1468,-0.1497,-0.1515,-0.1541,-0.1581,-0.1623,-0.1645,-0.1703,-0.1701,-0.1729,-0.1731,-0.1728,-0.1748,-0.1786,-0.1737,-0.1738,-0.174,-0.1854,-0.1724,-0.1719,-0.18,-0.1802,-0.1804,-0.1831,0,-0.1367,-0.1422,-0.1446,-0.1492,-0.1521,-0.1554,-0.1581,-0.1622,-0.1654,-0.1712,-0.1732,-0.1776,-0.1744,-0.1772,-0.1788,-0.1795,-0.1812,-0.1779,-0.182,-0.1821,-0.1697,-0.1726,-0.181,-0.1837,-0.1839,-0.184,-0.1841,0,-0.136,-0.1406,-0.1462,-0.1538,-0.1555,-0.1581,-0.1654,-0.1683,-0.1756,-0.1791,-0.1846,-0.1865,-0.1901,-0.1868,-0.1902,-0.1887,-0.1877,-0.1871,-0.1873,-0.1752,-0.1706,-0.1794,-0.1855,-0.1854,-0.1853,-0.1852,-0.1851,0,-0.133,-0.141,-0.1463,-0.1487,-0.1567,-0.1611,-0.165,-0.1721,-0.1762,-0.1856,-0.1897,-0.1952,-0.1976,-0.199,-0.1956,-0.1948,-0.1983,-0.197,-0.1844,-0.1835,-0.1934,-0.1927,-0.2004,-0.2004,-0.2004,-0.2004,-0.2004,0,-0.1311,-0.1357,-0.1467,-0.1496,-0.1564,-0.1624,-0.1697,-0.1751,-0.1836,-0.1878,-0.1943,-0.1969,-0.2011,-0.2021,-0.1997,-0.193,-0.2016,-0.1856,-0.1838,-0.194,-0.1933,-0.1939,-0.1931,-0.2005,-0.2005,-0.2005,-0.2005,0,-0.1257,-0.1332,-0.1401,-0.1514,-0.1551,-0.16,-0.1704,-0.1747,-0.1845,-0.1902,-0.1932,-0.2,-0.2007,-0.2021,-0.2034,-0.1958,-0.1926,-0.1884,-0.1982,-0.1969,-0.1748,-0.1741,-0.1759,-0.1754,-0.1751,-0.1748,-0.1745,0,-0.123,-0.1267,-0.1398,-0.1435,-0.1489,-0.1576,-0.1619,-0.1733,-0.1768,-0.1887,-0.1892,-0.1953,-0.1973,-0.1885,-0.1917,-0.188,-0.185,-0.1823,-0.1791,-0.1744,-0.1726,-0.1725,-0.1723,-0.1739,-0.1738,-0.1737,-0.1737,0,-0.1173,-0.1234,-0.1288,-0.1369,-0.1431,-0.1492,-0.1567,-0.1587,-0.1699,-0.1808,-0.1804,-0.1803,-0.1809,-0.1798,-0.1778,-0.1748,-0.1837,-0.1784,-0.1792,-0.1762,-0.1721,-0.1707,-0.1709,-0.1724,-0.1726,-0.1727,-0.1728,0,-0.1124,-0.1144,-0.122,-0.1276,-0.1346,-0.1371,-0.1435,-0.1471,-0.1526,-0.1657,-0.1648,-0.171,-0.1787,-0.1729,-0.1709,-0.1671,-0.1646,-0.1584,-0.1601,-0.1616,-0.1553,-0.1479,-0.1397,0,0,0,0,0,-0.1064,-0.1071,-0.1115,-0.1169,-0.1231,-0.1272,-0.1372,-0.1437,-0.1552,-0.1506,-0.1576,-0.1572,-0.1552,-0.1586,-0.1516,-0.1642,-0.165,-0.1552,-0.1589,-0.1654,-0.1669,-0.1606,0,0,0,0,0,0,-0.1024,-0.1058,-0.1075,-0.1058,-0.107,-0.1126,-0.1183,-0.127,-0.1258,-0.138,-0.1377,-0.1469,-0.1472,-0.1564,-0.1479,-0.1489,-0.1477,-0.16,-0.1596,-0.1646,-0.1659,-0.1671,-0.1611,0,0,0,0,0]},{"header":{"parameterUnit":"m.s-1","parameterCategory":2,"la1":30.2991,"la2":30.254,"lo1":-89.0895,"lo2":-89.0444,"dy":0.0017,"dx":0.0017,"nx":28,"ny":28,"refTime":"2024-10-06T09:00:00:Z","depth":"4","parameterNumber":3,"parameterNumberName":"V-component_of_CURRENTS"},"data":[0,0,0,0,0,0,0,0,0,0,0,0,0,0,0,0,0,0,0,0,0,0,0,0,0,0,0,0,0,0,0,0,0,0,0,0,0,0,0,0,0,0,0,0,0,0,0,0,0,0,0,0,0,0,0,0,0,0,-0.0053,-0.0053,0,-0.0022,-0.0022,-0.0022,-0.0007,-0.0007,-0.0007,-0.0007,0.0037,0.0038,0.0039,0,0,0,0,0,0,0,0,0,0,0,0,0,-0.0085,-0.0084,-0.0053,-0.0053,-0.0052,-0.0022,-0.0022,-0.0022,-0.0007,-0.0007,-0.0007,-0.0007,0.0037,0.0038,0.004,0,0,0,0,0,0,0,0,0,0,0,0,0,-0.0064,-0.0084,-0.0053,-0.0041,-0.004,-0.0023,-0.0022,-0.0021,-0.0007,-0.0007,-0.0007,-0.0007,0.0036,0.0038,0.004,0.0051,0,0,0.0045,0.0046,0,0,0,0,0,0,0,0,-0.0065,-0.0063,-0.0043,-0.0042,-0.004,-0.0018,-0.0017,0.0003,-0.0007,-0.0019,-0.0007,-0.0007,0.002,0.0023,0.0029,0.0053,0.0055,0.0045,0.0046,0.0047,0.0048,0,0,0,0,0,0,0,-0.0067,-0.0064,-0.0041,-0.0043,-0.0041,-0.0033,-0.003,-0.0013,0.0,-0.0018,-0.0017,-0.0014,0.0021,0.0027,0.003,0.0055,0.0045,0.0047,0.0048,0.0049,0.0102,0.0102,0,0,0,0,0,0,-0.0071,-0.0066,-0.0042,-0.004,-0.0053,-0.0032,-0.0029,-0.0025,-0.0,0.0003,-0.0014,-0.0013,0.0024,0.0028,0.0031,0.005,0.0047,0.0049,0.005,0.0101,0.0102,0.0102,0,0,0,0,0,0,-0.0072,-0.0069,-0.0043,-0.0052,-0.0048,-0.0032,-0.0028,-0.0025,-0.002,0.0003,0.0007,-0.0012,0.0024,0.0029,0.0048,0.0052,0.005,0.0051,0.0101,0.0101,0.0102,0.0085,0,0,0,0,0,0,-0.0073,-0.007,-0.0071,-0.0052,-0.0048,-0.0037,-0.0028,-0.0024,-0.0018,-0.0017,0.0006,0.001,0.0024,0.0045,0.0049,0.0054,0.0053,0.01,0.0101,0.0102,0.0085,0.0085,0.0085,0,0,0,0,0,-0.0074,-0.0076,-0.0071,-0.0068,-0.0049,-0.0037,-0.0034,-0.0022,-0.0018,-0.0017,0.0001,0.0009,0.0052,0.0047,0.0052,0.0057,0.01,0.0101,0.0102,0.0085,0.0085,0.0085,0,0,0,0,0,0,-0.009,-0.0073,-0.0068,-0.0065,-0.0054,-0.0035,-0.0034,-0.0024,-0.0009,-0.0009,0.0014,0.0019,0.0037,0.005,0.0044,0.0075,0.0078,0.008,0.0064,0.0064,0.0063,0.0049,0.0054,0,0,0,0,0,-0.0094,-0.0092,-0.0074,-0.0073,-0.0068,-0.0051,-0.0046,-0.0038,-0.0022,-0.0015,0.0003,0.0024,0.0045,0.0056,0.0074,0.0091,0.011,0.0098,0.0098,0.0098,0.009,0.0127,0.0129,0.0105,0.0105,0.0105,0,0,-0.01,-0.0091,-0.009,-0.0076,-0.0067,-0.0065,-0.0048,-0.0043,-0.0038,-0.0012,-0.0,0.0022,0.0049,0.0068,0.0078,0.0079,0.0117,0.0099,0.0098,0.0091,0.0128,0.0131,0.0133,0.0105,0.0105,0.0105,0,0,-0.0116,-0.0103,-0.0109,-0.0102,-0.0091,-0.0077,-0.0077,-0.0058,-0.0047,-0.003,-0.0009,0.0015,0.0044,0.0067,0.0082,0.0092,0.0113,0.0098,0.0087,0.0123,0.0125,0.0127,0.016,0.0166,0.0099,0.0099,0.0099,0,-0.0126,-0.0132,-0.011,-0.0115,-0.0116,-0.0084,-0.0095,-0.0073,-0.0051,-0.0043,-0.003,0.002,0.0044,0.0073,0.0077,0.0091,0.0113,0.0085,0.0122,0.0125,0.0127,0.0161,0.0166,0.0098,0.0098,0.0098,0.0099,0,-0.0146,-0.0155,-0.0158,-0.0154,-0.0147,-0.0151,-0.0121,-0.0109,-0.0088,-0.0067,-0.0037,0.0006,0.0031,0.0051,0.0068,0.0097,0.0108,0.0117,0.012,0.0128,0.0163,0.017,0.0097,0.0098,0.0098,0.0098,0,0,-0.0164,-0.0174,-0.0176,-0.0195,-0.0173,-0.0175,-0.0155,-0.0138,-0.0133,-0.0089,-0.0077,-0.0023,-0.0001,0.0018,0.0051,0.0089,0.0132,0.0106,0.0109,0.0135,0.021,0.02,0.0206,0.0147,0.0148,0.0149,0.023,0,-0.0193,-0.023,-0.0214,-0.0244,-0.0263,-0.0229,-0.0218,-0.0193,-0.016,-0.0134,-0.0074,-0.0049,-0.0011,0.0001,0.0047,0.0108,0.0147,0.0109,0.0202,0.0205,0.0191,0.0213,0.0152,0.0235,0.0236,0.0237,0.0238,0,-0.0218,-0.0246,-0.0289,-0.0311,-0.0314,-0.0318,-0.0306,-0.029,-0.0234,-0.0207,-0.0158,-0.011,-0.0044,-0.0015,0.01,0.0073,0.0134,0.0188,0.0193,0.019,0.0206,0.0225,0.025,0.0249,0.0248,0.0247,0.0247,0,-0.0261,-0.0294,-0.0338,-0.0346,-0.0357,-0.0367,-0.0362,-0.0321,-0.0311,-0.0253,-0.0236,-0.015,-0.0105,-0.0013,0.0103,0.01,0.0231,0.0242,0.0293,0.0293,0.0285,0.0281,0.0317,0.0317,0.0317,0.0316,0.0316,0,-0.0297,-0.0333,-0.037,-0.0398,-0.0447,-0.0427,-0.045,-0.0426,-0.0385,-0.037,-0.0284,-0.0247,-0.0102,-0.0006,0.0093,0.0215,0.0226,0.0293,0.0314,0.0277,0.0272,0.029,0.0286,0.0319,0.0319,0.0318,0.0318,0,-0.0333,-0.0353,-0.0416,-0.0458,-0.0473,-0.0508,-0.0518,-0.0523,-0.0477,-0.045,-0.0433,-0.0313,-0.0183,-0.0038,0.0123,0.0197,0.0314,0.0351,0.0302,0.0319,0.0355,0.0349,0.0416,0.0417,0.0417,0.0417,0.0417,0,-0.0351,-0.0391,-0.0474,-0.0515,-0.0539,-0.0583,-0.0603,-0.0576,-0.0568,-0.0489,-0.0473,-0.0346,-0.0252,-0.003,0.0118,0.031,0.0332,0.0387,0.0372,0.0351,0.0366,0.0359,0.0353,0.0418,0.0418,0.0418,0.0418,0,-0.0396,-0.0431,-0.0485,-0.0577,-0.0624,-0.0668,-0.0689,-0.0691,-0.0637,-0.0602,-0.0499,-0.0368,-0.0217,-0.0036,0.0117,0.0251,0.0349,0.039,0.0391,0.0377,0.0354,0.0366,0.036,0.0419,0.0419,0.0419,0.0418,0,-0.0425,-0.0478,-0.0553,-0.0626,-0.0689,-0.0724,-0.0736,-0.0711,-0.0692,-0.0589,-0.0559,-0.0383,-0.0273,-0.0066,0.0071,0.0208,0.0239,0.027,0.0277,0.0278,0.0212,0.0161,0.0186,0,0,0,0,0,-0.045,-0.051,-0.059,-0.0667,-0.0726,-0.0755,-0.0773,-0.0765,-0.0717,-0.0653,-0.0599,-0.0455,-0.0223,-0.0122,0.0013,0.0067,0.0253,0.0227,0.0288,0.0424,0.0423,0.0368,0,0,0,0,0,0,-0.0468,-0.0549,-0.0596,-0.0677,-0.0726,-0.0779,-0.0791,-0.0762,-0.0715,-0.065,-0.0528,-0.0439,-0.0217,-0.03,0.0011,0.0054,0.0106,0.0344,0.0346,0.0425,0.0424,0.0423,0.0366,0,0,0,0,0]}]]